• In Russia
  • List of Countries
  • For 7 days
  • Water Temperature
  • Satellite Maps
  • Weather Map
  • Weather Widgets
  • user-avatar
    Login

    Hourly Weather Chotum

    Today, 16 August, Thursday

    Time Temperature Precipitation Wind Pressure Humidity
    00:00 +18°C° 0 mm 1 mps 753 mmHg 91%
    01:00 +16°C° 0 mm 1 mps 753 mmHg 92%
    02:00 +16°C° 0 mm 1 mps 753 mmHg 93%
    03:00 +16°C° 0 mm 1 mps 753 mmHg 93%
    04:00 +15°C° 0 mm 1 mps 753 mmHg 93%
    05:00 +15°C° 0 mm 0 mps 754 mmHg 89%
    06:00 +17°C° 0 mm 0 mps 754 mmHg 84%
    07:00 +18°C° 0 mm 0 mps 754 mmHg 78%
    08:00 +20°C° 0 mm 0 mps 754 mmHg 71%
    09:00 +21°C° 0 mm 0 mps 754 mmHg 64%
    10:00 +23°C° 0 mm 0 mps 754 mmHg 57%
    11:00 +23°C° 0 mm 0 mps 754 mmHg 53%
    12:00 +24°C° 0 mm 0 mps 754 mmHg 49%
    13:00 +27°C° 0 mm 1 mps 753 mmHg 46%
    14:00 +27°C° 0 mm 1 mps 753 mmHg 45%
    15:00 +27°C° 0 mm 1 mps 753 mmHg 45%
    16:00 +27°C° 0 mm 1 mps 753 mmHg 44%
    17:00 +25°C° 0 mm 1 mps 753 mmHg 49%
    18:00 +24°C° 0 mm 1 mps 753 mmHg 55%
    19:00 +22°C° 0 mm 1 mps 753 mmHg 60%
    20:00 +21°C° 0 mm 2 mps 753 mmHg 63%
    21:00 +20°C° 0 mm 2 mps 753 mmHg 66%
    22:00 +19°C° 0 mm 2 mps 753 mmHg 69%
    23:00 +19°C° 0 mm 2 mps 753 mmHg 72%

    Tomorrow, 17 August, Friday

    Time Temperature Precipitation Wind Pressure Humidity
    00:00 +18°C° 0 mm 2 mps 753 mmHg 75%
    01:00 +18°C° 0 mm 2 mps 753 mmHg 77%
    02:00 +17°C° 0 mm 2 mps 753 mmHg 79%
    03:00 +17°C° 0 mm 2 mps 753 mmHg 81%
    04:00 +17°C° 0 mm 2 mps 753 mmHg 83%
    05:00 +18°C° 0 mm 2 mps 753 mmHg 79%
    06:00 +19°C° 0 mm 2 mps 753 mmHg 75%
    07:00 +20°C° 0 mm 2 mps 753 mmHg 71%
    08:00 +23°C° 0 mm 2 mps 753 mmHg 65%
    09:00 +25°C° 0 mm 2 mps 753 mmHg 59%
    10:00 +26°C° 0 mm 2 mps 753 mmHg 53%
    11:00 +27°C° 0 mm 2 mps 753 mmHg 51%
    12:00 +28°C° 0 mm 2 mps 752 mmHg 48%
    13:00 +28°C° 0 mm 2 mps 752 mmHg 45%
    14:00 +28°C° 0 mm 2 mps 752 mmHg 46%
    15:00 +28°C° 0 mm 1 mps 752 mmHg 47%
    16:00 +28°C° 0 mm 1 mps 751 mmHg 48%
    17:00 +26°C° 0 mm 1 mps 751 mmHg 51%
    18:00 +25°C° 0 mm 2 mps 751 mmHg 55%
    19:00 +24°C° 0 mm 2 mps 751 mmHg 58%
    20:00 +24°C° 0 mm 2 mps 751 mmHg 59%
    21:00 +23°C° 0 mm 2 mps 751 mmHg 61%
    22:00 +23°C° 0 mm 2 mps 752 mmHg 62%
    23:00 +21°C° 0 mm 2 mps 751 mmHg 65%

    Day after tomorrow, 18 August, Saturday

    Time Temperature Precipitation Wind Pressure Humidity
    00:00 +20°C° 0 mm 2 mps 751 mmHg 67%
    01:00 +20°C° 0 mm 2 mps 751 mmHg 70%
    02:00 +19°C° 0 mm 2 mps 751 mmHg 72%
    03:00 +19°C° 0 mm 2 mps 752 mmHg 74%
    04:00 +20°C° 0 mm 1 mps 752 mmHg 76%
    05:00 +21°C° 0 mm 1 mps 752 mmHg 74%
    06:00 +21°C° 0 mm 1 mps 752 mmHg 73%
    07:00 +22°C° 0 mm 1 mps 752 mmHg 72%
    08:00 +24°C° 0.1 mm 1 mps 752 mmHg 66%
    09:00 +26°C° 0.1 mm 1 mps 752 mmHg 60%
    10:00 +27°C° 0.1 mm 2 mps 752 mmHg 54%
    11:00 +28°C° 0.1 mm 2 mps 752 mmHg 50%
    12:00 +29°C° 0.1 mm 2 mps 752 mmHg 47%
    13:00 +29°C° 0.1 mm 2 mps 752 mmHg 44%
    14:00 +29°C° 0.1 mm 2 mps 752 mmHg 48%
    15:00 +28°C° 0.1 mm 2 mps 752 mmHg 52%
    16:00 +27°C° 0.1 mm 2 mps 752 mmHg 57%
    17:00 +26°C° 0.3 mm 2 mps 752 mmHg 62%
    18:00 +24°C° 0.3 mm 2 mps 752 mmHg 67%
    19:00 +23°C° 0.3 mm 2 mps 752 mmHg 72%
    20:00 +21°C° 0.4 mm 2 mps 753 mmHg 77%
    21:00 +20°C° 0.4 mm 2 mps 753 mmHg 81%
    22:00 +19°C° 0.4 mm 2 mps 753 mmHg 86%
    23:00 +19°C° 0.1 mm 2 mps 753 mmHg 89%

    19 August, Sunday

    Time Temperature Precipitation Wind Pressure Humidity
    00:00 +18°C° 0.1 mm 2 mps 753 mmHg 91%
    01:00 +17°C° 0.1 mm 2 mps 753 mmHg 94%
    02:00 +17°C° 0 mm 2 mps 753 mmHg 93%
    03:00 +16°C° 0 mm 2 mps 754 mmHg 93%
    04:00 +16°C° 0 mm 2 mps 754 mmHg 92%
    05:00 +17°C° 0 mm 2 mps 754 mmHg 86%
    06:00 +18°C° 0 mm 2 mps 754 mmHg 79%
    07:00 +19°C° 0 mm 2 mps 754 mmHg 73%
    08:00 +20°C° 0 mm 3 mps 754 mmHg 66%
    09:00 +22°C° 0 mm 3 mps 754 mmHg 58%
    10:00 +24°C° 0 mm 3 mps 754 mmHg 51%
    11:00 +25°C° 0 mm 3 mps 754 mmHg 49%
    12:00 +26°C° 0 mm 4 mps 754 mmHg 48%
    13:00 +26°C° 0 mm 4 mps 754 mmHg 47%
    14:00 +26°C° 0 mm 3 mps 754 mmHg 47%
    15:00 +26°C° 0 mm 3 mps 754 mmHg 48%
    16:00 +26°C° 0 mm 3 mps 754 mmHg 48%
    17:00 +25°C° 0 mm 2 mps 754 mmHg 53%
    18:00 +23°C° 0 mm 2 mps 754 mmHg 59%
    19:00 +22°C° 0 mm 1 mps 753 mmHg 64%
    20:00 +21°C° 0 mm 1 mps 754 mmHg 67%
    21:00 +21°C° 0 mm 1 mps 754 mmHg 70%
    22:00 +20°C° 0 mm 1 mps 754 mmHg 74%
    23:00 +19°C° 0 mm 1 mps 754 mmHg 77%

    20 August, Monday

    Time Temperature Precipitation Wind Pressure Humidity
    00:00 +19°C° 0 mm 1 mps 754 mmHg 80%
    01:00 +18°C° 0 mm 1 mps 754 mmHg 84%
    02:00 +18°C° 0 mm 1 mps 754 mmHg 85%
    03:00 +18°C° 0 mm 1 mps 754 mmHg 86%
    04:00 +15°C° 0 mm 0 mps 754 mmHg 87%
    05:00 +19°C° 0 mm 1 mps 754 mmHg 83%
    06:00 +20°C° 0 mm 1 mps 754 mmHg 78%
    07:00 +21°C° 0 mm 1 mps 754 mmHg 73%
    08:00 +23°C° 0 mm 1 mps 754 mmHg 67%
    09:00 +24°C° 0 mm 1 mps 754 mmHg 60%
    10:00 +26°C° 0 mm 2 mps 753 mmHg 54%
    11:00 +27°C° 0 mm 2 mps 753 mmHg 52%
    12:00 +27°C° 0 mm 2 mps 753 mmHg 50%
    13:00 +28°C° 0 mm 2 mps 753 mmHg 47%
    14:00 +28°C° 0 mm 2 mps 752 mmHg 47%
    15:00 +28°C° 0 mm 2 mps 752 mmHg 48%
    16:00 +28°C° 0 mm 2 mps 752 mmHg 48%
    17:00 +27°C° 0 mm 2 mps 752 mmHg 52%
    18:00 +25°C° 0 mm 2 mps 751 mmHg 57%
    19:00 +24°C° 0 mm 1 mps 751 mmHg 61%
    20:00 +23°C° 0 mm 2 mps 751 mmHg 62%
    21:00 +23°C° 0 mm 2 mps 751 mmHg 62%
    22:00 +21°C° 0 mm 3 mps 751 mmHg 63%
    23:00 +21°C° 0 mm 3 mps 751 mmHg 63%

    21 August, Tuesday

    Time Temperature Precipitation Wind Pressure Humidity
    00:00 +21°C° 0 mm 3 mps 751 mmHg 63%
    01:00 +20°C° 0 mm 3 mps 751 mmHg 63%
    02:00 +20°C° 0 mm 3 mps 751 mmHg 64%
    03:00 +20°C° 0 mm 3 mps 751 mmHg 65%
    04:00 +20°C° 0 mm 2 mps 751 mmHg 66%
    05:00 +20°C° 0 mm 2 mps 751 mmHg 67%
    06:00 +21°C° 0 mm 3 mps 751 mmHg 67%
    07:00 +22°C° 0 mm 3 mps 752 mmHg 67%
    08:00 +24°C° 0 mm 3 mps 752 mmHg 63%
    09:00 +26°C° 0 mm 3 mps 752 mmHg 60%
    10:00 +27°C° 0 mm 4 mps 752 mmHg 56%
    11:00 +28°C° 0.1 mm 4 mps 752 mmHg 54%
    12:00 +28°C° 0.1 mm 4 mps 751 mmHg 53%
    13:00 +29°C° 0.1 mm 4 mps 751 mmHg 51%
    14:00 +29°C° 0 mm 4 mps 751 mmHg 51%
    15:00 +28°C° 0 mm 4 mps 751 mmHg 52%
    16:00 +28°C° 0 mm 3 mps 751 mmHg 52%
    17:00 +27°C° 0 mm 3 mps 751 mmHg 56%
    18:00 +26°C° 0 mm 2 mps 751 mmHg 60%
    19:00 +25°C° 0 mm 2 mps 751 mmHg 64%
    20:00 +24°C° 0 mm 2 mps 751 mmHg 66%
    21:00 +23°C° 0 mm 1 mps 751 mmHg 68%
    22:00 +23°C° 0 mm 1 mps 751 mmHg 70%
    23:00 +22°C° 0 mm 1 mps 751 mmHg 72%
    Show more